Tracking 17264 objects as of 1-September-2015
HD Live streaming from Space Station

COSMOS 2251 DEB

Track COSMOS 2251 DEB now!
10-day predictions
COSMOS 2251 DEB is classified as:


NORAD ID: 34447
Int'l Code: 1993-036SQ
Perigee: 646.9 km
Apogee: 686.5 km
Inclination: 74.0 °
Period: 97.9 minutes
Semi major axis: 7037 km
RCS: 0.038 m2 (small)
Launch date: June 16, 1993
Source: Commonwealth of Independent States (former USSR) (CIS)

Note: This is SATELLITE DEBRIS
Your satellite tracking list
Your tracking list is empty





NASA's NSSDC Master Catalog

Two Line Element Set (TLE):
1 34447U 93036SQ  15242.96444825 +.00005485 +00000-0 +90396-3 0  9991
2 34447 074.0308 199.0516 0028137 193.2547 237.7581 14.70471992344827

Source of the keplerian elements: AFSPC

N2YO: 357